星链-3087 (STARLINK-3087 )

导读 | 豆包AI

STARLINK-3087是美国SpaceX公司星链星座的一颗通信卫星,于2021年9月14日发射。星链计划旨在搭建全球低轨卫星互联网,实现全球无缝宽带覆盖。该星部署于近地轨道,采用平板设计、霍尔推进与自主避撞技术,搭载Ku/Ka波段通信载荷,服务全球互联网接入,设计寿命约5-7年,退役后将主动离轨销毁。

Basic Information
目录编号:
49175
目录名称:
STARLINK-3087
国际标识:
2021-082AX
轨道中心:
EARTH
卫星名称:
星链-3087
卫星全名:
星链-3087 (STARLINK-3087 )
卫星状态:
在轨 (已飞行1642 天)
发射日期:
2021-09-14 UTC
国别 :
美国 (US)
星等 :
--
Orbit Information
数据来源 国际轨道数据 AOE轨道数据
星历时间 2026-03-14T06:45:11+0800
21小时前
查看轨道信息
2026-03-13T09:00:00+0800
1天前
查看轨道信息
半长轴 6952.696km 6952.698km
偏心率 0.0003069 0.0002896
轨道倾角 69.996° 69.997°
近地点辐角 280.071° 272.102°
升交点赤经 264.648° 266.932°
平近点角 80.010° 243.048°
近地点 572.425km 572.547km
远地点 576.693km 576.575km
周期 96.159分钟 96.159分钟
每日圈数 14.975212 14.975206
Detailed Information
固有亮度:
5
最大亮度:
2.5
卫星平台:
Starlink v1.5
覆盖范围:
全球
运营商:
太空探索技术公司
运营商所在国:
美国
制造商(研发单位):
太空探索技术公司
制造商所在国:
美国
使用方式:
暂无
Satellite Introduction
星链(Starlink)计划是由太空探索技术公司(SpaceX)提出的一个巨型低轨卫星互联网星座项目,计划在2019年至2024年间在太空搭建由约1.2万颗卫星组成的“星链”网络,其中1584颗将部署在地球上空550千米处的近地轨道,并从2020年开始工作。该卫星仍在工作。
2D Orbit Map
3D Orbit Map
Orbit Altitude Analysis Chart
Orbit Inclination Analysis Chart
Orbit Comprehensive Analysis Chart
View Comprehensive Chart